Showing default

GLOBALSTAR M086, 38045

Orbit data source: Space-Track

GLOBALSTAR M086, 38045 is a payload satellite owned by Globalstar (US) in LEO that was launched on Wed, 28 Dec 2011 UTC via a SOYUZ-2-1A launch vehicle from the Tyuratam Missile And Space Complex (TTMTR). Payload-class satellites include a variety of spacecraft equipped with specific instruments for various scientific and technological missions. These include communications satellites like Starlink; space stations such as the ISS; scientific satellites like the Hubble; Earth observation satellites from companies like Planet Labs, Umbra, and HawkEye 360; GPS; miniature CubeSats for education and research; and military/defense satellites.

Loading next visibility...
Identifier
38045, 2011-080F
Orbit
LEO
Country
Flag of USUS / GLOB
Related business
Manufacturer
Thales Alenia
Mission
Operational Commercial Communications
Bus & Motor
PRISMA?, LS-400 AOCS?
Mass
715 kg wet, ~500 kg dry
Launch date (UTC)
2011-12-28 (14 years ago)
Launch vehicle
SOYUZ-2-1A
Launch site
Tyuratam Missile And Space Complex (TTMTR)
Object type
Payload
Rocket body
Debris
Shape & HBR
Trap Cyl + 2 Pan, 6.0 m
Radar Cross Section
20.931 m², Large (>1 m²)

Expand to show TLE details & history
Last TLE update: 20 hours ago

TLE from 20 hours ago
0 GLOBALSTAR M086
1 38045U 11080F   26119.38743523 -.00000077  00000-0  14821-3 0  9998
2 38045  51.9874 116.9914 0000904 314.3434 193.2821 12.62285604663492
Epoch: 2026-04-29T09:17Z
TLE epoch observation values (Epoch: 2026-04-29T09:17:54.403Z)
Latitude
25.01773°
Longitude
-81.11759°
Altitude
1,415.044 km
Speed
7.156 km/s
True Right ascension
18h 22m 49s
True Declination
24° 53' 50"
Sunlit
Object was in daylight at epoch
Visualization orbit readout
Latitude
Unknown
Longitude
Unknown
Altitude
Unknown
Speed
Unknown
Apparent Right ascension
Unknown
Apparent Declination
Unknown
Sunlit
N/A
Visualization observer readout
Local Sidereal Time
12:34:41
Azimuth
Unknown
Elevation
Unknown
Doppler factor
Unknown
Orbital elements
Apogee altitude
1,414.623 km
Perigee altitude
1,413.214 km
Semi-major axis
7,792.056 km
Eccentricity
0.00009
Inclination
51.9874°
RAAN
116.9914°
Arg. of periapsis
314.3434°
True anomaly
193.27972°
Mean anomaly
193.2821°
Eccentric anomaly
193.28091°
Mean motion
3.15548 °/min
Orbital period
114.09 mins
BSTAR
0.00014821
Loading maneuver chart data...
Computing Atmospheric mass density...
Loading historical data...
Loading historical data...
Loading historical data...
Loading historical data...
Loading historical data...
Loading historical data...
Loading historical data...

Documentation

Showing up to 5 results
|